Regional Weather Roundup
Issued by NWS

Home | Current Version | Previous Version | Graphics & Text | Print | Product List | Glossary On
Versions: 1 2 3 4 5 6 7 8 9 10 11 12 13 14 15 16 17 18 19 20 21 22 23 24 25 26 27 28 29 30 31 32 33 34 35 36 37 38 39 40 41 42 43 44 45 46 47 48 49 50
000
ASUS43 KLMK 301910
RWRKY
KENTUCKY REGIONAL WEATHER ROUNDUP
NATIONAL WEATHER SERVICE LOUISVILLE KY
300 PM EDT MON MAR 30 2015

NOTE "FAIR" INDICATES FEW OR NO CLOUDS BELOW 12,000 FEET
WITH NO SIGNIFICANT WEATHER AND/OR OBSTRUCTIONS TO VISIBILITY.

KYZ001>023-026-027-061>063-070>075-302000-
WESTERN AND SOUTH CENTRAL KENTUCKY

CITY           SKY/WX    TMP DP  RH WIND       PRES   REMARKS
PADUCAH        SUNNY     66  27  23 N5        30.17F
HENDERSON      SUNNY     63  32  31 NW7       30.15F
OWENSBORO      MOSUNNY   62  32  32 N7        30.16F
HOPKINSVILLE   SUNNY     64  26  24 VRB1      30.16F
BOWLING GREEN  SUNNY     63  28  26 VRB6      30.17F
GLASGOW        MOSUNNY   62  29  27 NW9       30.15F
$$

KYZ024-025-028>034-038-045-046-053-302000-
NORTH CENTRAL KENTUCKY

CITY           SKY/WX    TMP DP  RH WIND       PRES   REMARKS
LOUISVILLE/SDF MOSUNNY   62  26  25 NW8G18    30.14F
LOUISVILLE/LOU SUNNY     61  26  26 NW14      30.13F
FORT KNOX      SUNNY     60  26  26 N8        30.12F
$$

KYZ035>037-039>044-047>052-055>060-089>105-302000-
NORTHEAST KENTUCKY

CITY           SKY/WX    TMP DP  RH WIND       PRES   REMARKS
LEXINGTON      SUNNY     59  29  31 NW9G20    30.12F
COVINGTON      MOSUNNY   58  27  30 W14       30.09F
FRANKFORT      SUNNY     58  23  26 NW14G21   30.11F
$$

KYZ054-064>069-076>088-106>120-302000-
SOUTHEAST KENTUCKY

CITY           SKY/WX    TMP DP  RH WIND       PRES   REMARKS
JACKSON        MOSUNNY   59  27  29 VRB6G21   30.10F
LONDON         SUNNY     61  26  26 NW12G20   30.11F
SOMERSET       SUNNY     59  32  36 W9G16     30.14F
MIDDLESBORO    SUNNY     62  33  34 NW13      30.11F
MONTICELLO     CLEAR     62  31  31 VRB7      30.17F
$$



USA.gov is the U.S. government's official web portal to all federal, state and local government web resources and services.